Вернуться в каталог

GLOBALSTAR M058

АктивенСвязьLEO
NORAD 25907·PAYLOAD·🇺🇸 United States

Запущен Sep 22, 1999 с Baikonur Cosmodrome

Loading…

Ближайшие Пролёты (ближайшие 24 часа)

TLE

СвежийSource: Space-Track

Эпоха: Sep 14, 2026, 22:15 UTC

1 25907U 99049A   26257.92773640 -.00000119  00000-0 -46488-3 0  9990
2 25907  51.9968 334.8758 0002694  80.2710 279.8429 11.93217573595829

Отслеживайте GLOBALSTAR M058 в реальном времени с AllMySat

Download on the App Store